[[{"header":{"parameterUnit":"m.s-1","parameterCategory":1,"la1":30.2991,"la2":30.254,"lo1":-89.0895,"lo2":-89.0444,"dy":0.0017,"dx":0.0017,"nx":28,"ny":28,"refTime":"2025-12-26T03:00:00:Z","depth":0,"parameterNumber":2,"parameterNumberName":"U-component_of_WINDS"},"data":[0,0,0,0,0,0,0,0,0,0,0,0,0,0,0,0,0,0,0,0,0,0,0,0,0,0,0,0,0,0,0,0,0,0,0,0,0,0,0,0,0,0,0,0,0,0,0,0,0,0,0,0,0,0,0,0,0,0,0.1134,0.1135,0,0.1248,0.1249,0.1251,0.1277,0.1276,0.1275,0.1275,0.1395,0.1399,0.1403,0,0,0,0,0,0,0,0,0,0,0,0,0,0.0943,0.0946,0.1134,0.1135,0.1137,0.1248,0.125,0.1251,0.1277,0.1276,0.1275,0.1274,0.1393,0.1398,0.1403,0,0,0,0,0,0,0,0,0,0,0,0,0,0.1038,0.0947,0.1134,0.1163,0.1167,0.1248,0.125,0.1252,0.1277,0.1276,0.1275,0.1274,0.1392,0.1398,0.1404,0.1464,0,0,0.1422,0.1424,0,0,0,0,0,0,0,0,0.1033,0.1045,0.1157,0.1161,0.1166,0.1247,0.1226,0.1323,0.1278,0.1235,0.1275,0.1273,0.1347,0.1356,0.1381,0.147,0.1475,0.1422,0.1426,0.1428,0.143,0,0,0,0,0,0,0,0.1026,0.1041,0.1179,0.1159,0.1164,0.1172,0.1184,0.1245,0.1297,0.1239,0.1241,0.1254,0.1349,0.1375,0.1384,0.1477,0.1422,0.1427,0.1431,0.1433,0.1624,0.1626,0,0,0,0,0,0,0.1014,0.1035,0.1176,0.1183,0.1095,0.1176,0.119,0.1222,0.1296,0.1306,0.1255,0.1255,0.1365,0.1377,0.1388,0.1466,0.1428,0.1434,0.1437,0.1623,0.1624,0.1626,0,0,0,0,0,0,0.101,0.1026,0.1171,0.1109,0.1128,0.1181,0.1217,0.1225,0.1251,0.1308,0.1318,0.1272,0.1365,0.138,0.1445,0.147,0.1436,0.1442,0.1621,0.1623,0.1625,0.1621,0,0,0,0,0,0,0.1004,0.1024,0.1047,0.111,0.1132,0.1225,0.1218,0.1228,0.1261,0.1262,0.1326,0.1336,0.1365,0.1436,0.1451,0.1478,0.1446,0.1619,0.1622,0.1624,0.1619,0.1622,0.1625,0,0,0,0,0,0.0997,0.1041,0.1048,0.1065,0.1161,0.1227,0.1239,0.1271,0.1262,0.1287,0.1324,0.1334,0.1464,0.1443,0.146,0.1488,0.1617,0.1621,0.1624,0.1617,0.1622,0.1625,0,0,0,0,0,0,0.0981,0.105,0.1058,0.1124,0.1169,0.1231,0.1262,0.1274,0.1324,0.1323,0.1361,0.1375,0.1439,0.147,0.1445,0.1552,0.1541,0.1548,0.153,0.1534,0.1538,0.153,0.1451,0,0,0,0,0,0.0985,0.1031,0.109,0.1142,0.1164,0.1209,0.1239,0.1259,0.1308,0.1328,0.137,0.1418,0.147,0.1504,0.1555,0.1623,0.1639,0.1651,0.1654,0.1657,0.1663,0.1704,0.1711,0.1637,0.1637,0.1637,0,0,0.0994,0.1037,0.1064,0.114,0.1177,0.1227,0.1225,0.1277,0.1314,0.1336,0.1401,0.1433,0.149,0.1558,0.159,0.1586,0.1687,0.1661,0.1663,0.1668,0.1708,0.1715,0.1721,0.164,0.1639,0.1639,0,0,0.1035,0.1072,0.112,0.1158,0.1215,0.1245,0.1256,0.1317,0.1339,0.1404,0.1423,0.1468,0.1556,0.1597,0.1629,0.1687,0.1699,0.1702,0.172,0.176,0.1766,0.1771,0.1794,0.1801,0.1708,0.1708,0.1708,0,0.104,0.1113,0.1144,0.1196,0.1229,0.125,0.1301,0.1337,0.1407,0.1431,0.1425,0.1538,0.1577,0.1655,0.167,0.1694,0.171,0.1696,0.1762,0.1768,0.1773,0.1796,0.1804,0.1708,0.1708,0.1708,0.1708,0,0.1117,0.1168,0.12,0.1268,0.1305,0.1356,0.1396,0.143,0.1447,0.1478,0.1546,0.1594,0.1656,0.1676,0.1693,0.1757,0.1753,0.1754,0.1744,0.178,0.1802,0.181,0.1708,0.1708,0.1708,0.1708,0,0,0.1152,0.1236,0.1248,0.128,0.1345,0.1385,0.1438,0.1498,0.1527,0.1575,0.1622,0.1697,0.1698,0.1734,0.1756,0.1791,0.1837,0.1788,0.179,0.1797,0.1913,0.1914,0.1923,0.1844,0.1846,0.1847,0.1909,0,0.1203,0.1297,0.1327,0.1405,0.1454,0.1476,0.1522,0.1567,0.1598,0.1645,0.1679,0.1732,0.1728,0.1751,0.1785,0.1823,0.1861,0.1819,0.189,0.1892,0.1877,0.1934,0.1935,0.1991,0.1918,0.1919,0.192,0,0.1275,0.1325,0.1408,0.1468,0.149,0.1531,0.1589,0.1633,0.1686,0.1706,0.1747,0.1766,0.1824,0.1809,0.189,0.1861,0.1892,0.1915,0.1918,0.1927,0.191,0.1948,0.201,0.2019,0.1934,0.1933,0.1932,0,0.1295,0.1382,0.1445,0.1471,0.1542,0.1571,0.1602,0.1653,0.1688,0.1739,0.1763,0.182,0.1852,0.1897,0.1932,0.1917,0.2011,0.1998,0.2031,0.203,0.2051,0.205,0.2121,0.2067,0.2067,0.2067,0.2066,0,0.135,0.1401,0.1455,0.1493,0.1551,0.1586,0.1643,0.1676,0.1722,0.1768,0.1789,0.1833,0.1876,0.1925,0.1953,0.2017,0.2031,0.205,0.2057,0.2049,0.2047,0.2072,0.207,0.2069,0.2068,0.2068,0.2068,0,0.1383,0.1421,0.149,0.1552,0.1569,0.1609,0.1663,0.1702,0.1733,0.1792,0.1808,0.1857,0.1917,0.1956,0.2031,0.205,0.2121,0.2126,0.2103,0.2107,0.2139,0.2136,0.223,0.2245,0.2178,0.2179,0.2179,0,0.1417,0.1457,0.1523,0.1556,0.1587,0.1638,0.1674,0.171,0.1747,0.1811,0.1843,0.1903,0.1954,0.2048,0.2092,0.215,0.2158,0.2187,0.2167,0.2159,0.2162,0.216,0.2165,0.2191,0.2192,0.2192,0.2192,0,0.1474,0.1491,0.1541,0.1598,0.164,0.1687,0.1735,0.176,0.1805,0.1845,0.1906,0.1945,0.2023,0.2083,0.2146,0.218,0.2195,0.2198,0.2209,0.2203,0.2189,0.2199,0.2114,0.2196,0.2196,0.2195,0.2195,0.2195,0.151,0.1547,0.16,0.1656,0.1695,0.1739,0.178,0.1816,0.1867,0.1933,0.1951,0.2015,0.2069,0.2155,0.219,0.2241,0.2238,0.2254,0.2258,0.2262,0.2264,0.2178,0.2253,0.2252,0.2252,0.2252,0.2252,0,0.1569,0.1605,0.1656,0.1722,0.1766,0.1775,0.1828,0.1865,0.1921,0.197,0.2019,0.209,0.215,0.2198,0.2259,0.2292,0.23,0.2307,0.2306,0.2314,0.2262,0.2247,0.2299,0.2299,0.2299,0.2299,0.2299,0.2299,0.1606,0.167,0.1694,0.1779,0.1814,0.1877,0.1907,0.1948,0.1987,0.2066,0.2115,0.2146,0.2195,0.2261,0.2316,0.2329,0.2352,0.2358,0.2372,0.2323,0.2317,0.2313,0.2299,0.2362,0.2362,0.2421,0.2421,0.2422]},{"header":{"parameterUnit":"m.s-1","parameterCategory":1,"la1":30.2991,"la2":30.254,"lo1":-89.0895,"lo2":-89.0444,"dy":0.0017,"dx":0.0017,"nx":28,"ny":28,"refTime":"2025-12-26T03:00:00:Z","depth":0,"parameterNumber":3,"parameterNumberName":"V-component_of_WINDS"},"data":[0,0,0,0,0,0,0,0,0,0,0,0,0,0,0,0,0,0,0,0,0,0,0,0,0,0,0,0,0,0,0,0,0,0,0,0,0,0,0,0,0,0,0,0,0,0,0,0,0,0,0,0,0,0,0,0,0,0,3.5414,3.5415,0,3.5492,3.5493,3.5494,3.5493,3.5492,3.5491,3.549,3.5567,3.557,3.5573,0,0,0,0,0,0,0,0,0,0,0,0,0,3.5263,3.5266,3.5414,3.5415,3.5416,3.5492,3.5493,3.5494,3.5493,3.5492,3.5491,3.549,3.5566,3.557,3.5574,0,0,0,0,0,0,0,0,0,0,0,0,0,3.5334,3.5267,3.5414,3.5425,3.5427,3.5492,3.5493,3.5494,3.5494,3.5492,3.5491,3.5489,3.5565,3.557,3.5574,3.5632,0,0,3.5588,3.559,0,0,0,0,0,0,0,0,3.533,3.5339,3.5423,3.5425,3.5427,3.5481,3.5468,3.554,3.5494,3.5468,3.549,3.5489,3.554,3.5546,3.5564,3.5636,3.5639,3.5588,3.5591,3.5593,3.5594,0,0,0,0,0,0,0,3.5325,3.5336,3.5445,3.5424,3.5426,3.5425,3.5434,3.5482,3.5512,3.547,3.5471,3.548,3.5541,3.556,3.5566,3.564,3.5588,3.5592,3.5595,3.5597,3.5765,3.5767,0,0,0,0,0,0,3.5318,3.5332,3.5442,3.5447,3.5373,3.5429,3.5439,3.5465,3.5511,3.5517,3.5481,3.548,3.5553,3.5561,3.5569,3.5642,3.5593,3.5597,3.56,3.5763,3.5765,3.5767,0,0,0,0,0,0,3.5315,3.5328,3.5439,3.539,3.5404,3.5434,3.5464,3.5468,3.5487,3.5519,3.5524,3.5496,3.5552,3.5562,3.5617,3.5645,3.5599,3.5603,3.5761,3.5764,3.5766,3.5788,0,0,0,0,0,0,3.531,3.5327,3.535,3.539,3.5406,3.5487,3.5465,3.547,3.5495,3.5494,3.5534,3.5539,3.5552,3.561,3.5621,3.565,3.5607,3.5759,3.5762,3.5765,3.5785,3.5791,3.5796,0,0,0,0,0,3.5305,3.5352,3.5351,3.5364,3.5436,3.5489,3.5498,3.5512,3.5497,3.5521,3.5541,3.5538,3.5639,3.5616,3.5628,3.5659,3.5757,3.5761,3.5765,3.5782,3.579,3.5796,0,0,0,0,0,0,3.5313,3.5357,3.5357,3.5418,3.545,3.5489,3.5519,3.5519,3.5555,3.5553,3.5567,3.5576,3.5632,3.565,3.5623,3.5718,3.5696,3.5703,3.5705,3.5712,3.5717,3.5713,3.561,0,0,0,0,0,3.5322,3.5362,3.5398,3.5448,3.5464,3.5489,3.5512,3.552,3.5553,3.5567,3.5591,3.5623,3.5662,3.5687,3.5725,3.5786,3.5796,3.5813,3.5818,3.5823,3.583,3.5865,3.5874,3.578,3.578,3.578,0,0,3.5341,3.537,3.5394,3.5451,3.5476,3.5517,3.55,3.5544,3.5574,3.5573,3.5628,3.5646,3.5682,3.5741,3.5768,3.5758,3.5857,3.5828,3.5831,3.5836,3.587,3.5879,3.5887,3.5783,3.5783,3.5782,0,0,3.5397,3.5422,3.5468,3.5494,3.5534,3.5549,3.556,3.5599,3.5612,3.5667,3.5667,3.5702,3.5769,3.5795,3.5817,3.5883,3.5882,3.5894,3.5925,3.596,3.5967,3.5974,3.6,3.6008,3.59,3.59,3.59,0,3.5416,3.5478,3.5491,3.5537,3.5562,3.5563,3.561,3.5634,3.5683,3.57,3.5688,3.5772,3.5796,3.5862,3.5879,3.5895,3.5909,3.5892,3.5965,3.5972,3.5978,3.6003,3.6013,3.5902,3.5901,3.5901,3.5901,0,3.55,3.5544,3.5576,3.5625,3.5654,3.5699,3.5719,3.5746,3.5751,3.5768,3.5823,3.5852,3.5897,3.5912,3.5916,3.5979,3.5972,3.5962,3.5941,3.5988,3.6012,3.6022,3.5904,3.5903,3.5903,3.5902,0,0,3.5567,3.5622,3.5634,3.5657,3.57,3.5734,3.5778,3.5823,3.5847,3.5879,3.5919,3.5974,3.5966,3.5991,3.5998,3.6028,3.6081,3.6015,3.6016,3.6029,3.6154,3.6164,3.6175,3.6079,3.6081,3.6082,3.6152,0,3.563,3.5712,3.5725,3.5797,3.5838,3.5839,3.5878,3.5909,3.5925,3.5961,3.5978,3.602,3.6004,3.6019,3.6048,3.6069,3.6107,3.6063,3.6117,3.6119,3.6112,3.6187,3.6197,3.6262,3.6161,3.6163,3.6164,0,3.5716,3.5753,3.583,3.5868,3.5886,3.5921,3.5964,3.5998,3.6032,3.6042,3.607,3.6073,3.612,3.6094,3.6159,3.6129,3.6151,3.6164,3.6166,3.6175,3.6147,3.62,3.6283,3.6294,3.6178,3.6177,3.6176,0,3.576,3.5829,3.5884,3.5903,3.5949,3.5974,3.5994,3.6026,3.6052,3.6088,3.6105,3.6145,3.6168,3.6198,3.6213,3.6192,3.6277,3.6252,3.6288,3.6288,3.6309,3.6308,3.6399,3.6317,3.6317,3.6317,3.6317,0,3.5832,3.588,3.5906,3.594,3.5993,3.6006,3.6059,3.6077,3.6106,3.6144,3.6145,3.618,3.6195,3.6232,3.6243,3.6297,3.6306,3.6315,3.6319,3.6318,3.6317,3.6335,3.6332,3.6319,3.6319,3.6318,3.6318,0,3.5893,3.5912,3.5973,3.601,3.6021,3.6059,3.6091,3.6124,3.6139,3.6187,3.6199,3.6223,3.6268,3.6284,3.6336,3.6344,3.6407,3.6404,3.6396,3.6398,3.6434,3.6432,3.6543,3.6559,3.6463,3.6464,3.6464,0,3.594,3.5977,3.6019,3.6045,3.6066,3.6107,3.6134,3.6148,3.6176,3.6217,3.6245,3.6289,3.6326,3.6396,3.6418,3.6458,3.6459,3.6495,3.6465,3.6464,3.6463,3.6463,3.6467,3.6502,3.6503,3.6504,3.6504,0,3.6021,3.6029,3.6068,3.6111,3.6144,3.6178,3.621,3.6231,3.6249,3.628,3.6326,3.6354,3.6409,3.6453,3.6495,3.6514,3.6513,3.6513,3.6524,3.6525,3.6521,3.6527,3.6415,3.6511,3.651,3.651,3.651,3.6509,3.6079,3.6113,3.6148,3.6192,3.6218,3.6249,3.6283,3.6303,3.6341,3.6389,3.6393,3.6443,3.6475,3.6531,3.6552,3.6591,3.6581,3.6596,3.6601,3.6605,3.661,3.6511,3.6598,3.6597,3.6597,3.6597,3.6597,0,3.6164,3.6187,3.6227,3.6274,3.6308,3.6303,3.6339,3.6368,3.6413,3.6443,3.6479,3.6532,3.6575,3.6599,3.6642,3.6668,3.6669,3.6679,3.668,3.6684,3.6614,3.6602,3.6678,3.6678,3.6678,3.6678,3.6678,3.6678,3.6213,3.6271,3.6282,3.6352,3.6374,3.6424,3.6445,3.6474,3.6499,3.6558,3.6594,3.661,3.6638,3.6683,3.6722,3.6728,3.6745,3.6757,3.6762,3.6697,3.6689,3.6681,3.667,3.6759,3.676,3.683,3.683,3.6831]}]]